Time,TemperatureF,DewpointF,PressureIn,WindDirection,WindDirectionDegrees,WindSpeedMPH,WindSpeedGustMPH,Humidity,HourlyPrecipIn,Conditions,Clouds,dailyrainin,SoftwareType,DateUTC
2013-01-18 00:00:00,23.4,15.4,29.62,West,270,0.0,0.0,71,0.00,,,0.00,WUHU21623XXSP,2013-01-18 06:00:00,
2013-01-18 01:00:00,25.2,17.5,29.62,SW,225,0.4,0.4,72,0.00,,,0.00,WUHU21623XXSP,2013-01-18 07:00:00,
2013-01-18 02:00:00,26.1,18.4,29.62,South,180,2.0,2.0,72,0.00,,,0.00,WUHU21623XXSP,2013-01-18 08:00:00,
2013-01-18 03:00:00,26.4,18.6,29.60,SSE,158,4.0,4.0,72,0.00,,,0.00,WUHU21623XXSP,2013-01-18 09:00:00,
2013-01-18 04:00:00,26.6,18.8,29.58,SSE,158,1.8,1.8,72,0.00,,,0.00,WUHU21623XXSP,2013-01-18 10:00:00,
2013-01-18 05:00:00,27.0,19.5,29.56,SSE,158,4.0,4.0,73,0.00,,,0.00,WUHU21623XXSP,2013-01-18 11:00:00,
2013-01-18 06:01:00,26.2,18.8,29.53,South,180,5.8,5.8,73,0.00,,,0.00,WUHU21623XXSP,2013-01-18 12:01:00,
2013-01-18 06:06:00,25.9,18.4,29.53,SSE,157,6.7,6.7,73,0.00,,,0.00,WUHU21623XXSP,2013-01-18 12:06:00,
2013-01-18 06:11:00,25.9,18.4,29.52,SSW,202,4.7,6.7,73,0.00,,,0.00,WUHU21623XXSP,2013-01-18 12:11:00,
2013-01-18 06:16:00,25.9,18.7,29.51,SW,225,7.6,7.6,74,0.00,,,0.00,WUHU21623XXSP,2013-01-18 12:16:00,
2013-01-18 06:21:00,25.9,18.7,29.52,South,180,4.0,7.6,74,0.00,,,0.00,WUHU21623XXSP,2013-01-18 12:21:00,
2013-01-18 06:26:00,25.9,18.7,29.51,SSE,157,6.3,6.7,74,0.00,,,0.00,WUHU21623XXSP,2013-01-18 12:26:00,
2013-01-18 06:31:00,25.9,18.7,29.52,South,180,4.7,6.7,74,0.00,,,0.00,WUHU21623XXSP,2013-01-18 12:31:00,
2013-01-18 06:36:00,25.9,18.7,29.52,SSW,202,4.0,8.1,74,0.00,,,0.00,WUHU21623XXSP,2013-01-18 12:36:00,
2013-01-18 06:41:00,25.9,18.7,29.52,South,180,2.9,8.1,74,0.00,,,0.00,WUHU21623XXSP,2013-01-18 12:41:00,
2013-01-18 06:46:00,25.9,18.7,29.52,SSW,202,6.7,6.7,74,0.00,,,0.00,WUHU21623XXSP,2013-01-18 12:46:00,
2013-01-18 06:51:00,25.9,18.7,29.52,SW,225,6.7,6.7,74,0.00,,,0.00,WUHU21623XXSP,2013-01-18 12:51:00,
2013-01-18 06:56:00,26.1,18.7,29.51,SSE,157,3.4,6.7,74,0.00,,,0.00,WUHU21623XXSP,2013-01-18 12:56:00,
2013-01-18 07:01:00,26.1,19.1,29.52,SSE,157,6.0,6.7,75,0.00,,,0.00,WUHU21623XXSP,2013-01-18 13:01:00,
2013-01-18 07:06:00,26.2,19.1,29.52,SSE,157,2.7,6.0,75,0.00,,,0.00,WUHU21623XXSP,2013-01-18 13:06:00,
2013-01-18 07:11:00,26.2,19.3,29.51,SSW,202,2.9,6.7,75,0.00,,,0.00,WUHU21623XXSP,2013-01-18 13:11:00,
2013-01-18 07:16:00,26.2,19.3,29.51,South,180,6.0,6.7,75,0.00,,,0.00,WUHU21623XXSP,2013-01-18 13:16:00,
2013-01-18 07:21:00,26.4,19.5,29.51,South,180,4.9,6.0,75,0.00,,,0.00,WUHU21623XXSP,2013-01-18 13:21:00,
2013-01-18 07:26:00,26.6,19.7,29.51,SSE,157,6.9,10.1,75,0.00,,,0.00,WUHU21623XXSP,2013-01-18 13:26:00,
2013-01-18 07:31:00,26.6,19.7,29.50,SSW,202,6.9,10.1,75,0.00,,,0.00,WUHU21623XXSP,2013-01-18 13:31:00,
2013-01-18 07:36:00,26.8,19.9,29.50,SSW,202,12.8,12.8,75,0.00,,,0.00,WUHU21623XXSP,2013-01-18 13:36:00,
2013-01-18 07:41:00,26.8,19.9,29.50,South,180,4.3,12.8,75,0.00,,,0.00,WUHU21623XXSP,2013-01-18 13:41:00,
2013-01-18 07:46:00,26.8,19.9,29.49,South,180,8.3,8.3,75,0.00,,,0.00,WUHU21623XXSP,2013-01-18 13:46:00,
2013-01-18 07:51:00,27.0,20.0,29.49,SSE,157,10.3,10.3,75,0.00,,,0.00,WUHU21623XXSP,2013-01-18 13:51:00,
2013-01-18 07:56:00,27.1,20.2,29.49,SW,225,1.3,10.3,75,0.00,,,0.00,WUHU21623XXSP,2013-01-18 13:56:00,
2013-01-18 08:01:00,27.3,20.2,29.49,South,180,7.4,7.4,75,0.00,,,0.00,WUHU21623XXSP,2013-01-18 14:01:00,
2013-01-18 08:06:00,27.5,20.6,29.49,South,180,6.9,7.4,75,0.00,,,0.00,WUHU21623XXSP,2013-01-18 14:06:00,
2013-01-18 08:11:00,27.7,20.8,29.49,SW,225,7.4,7.4,75,0.00,,,0.00,WUHU21623XXSP,2013-01-18 14:11:00,
2013-01-18 08:16:00,28.0,21.1,29.49,SW,225,7.4,7.4,75,0.00,,,0.00,WUHU21623XXSP,2013-01-18 14:16:00,
2013-01-18 08:21:00,28.2,21.3,29.49,SSW,202,6.9,7.4,75,0.00,,,0.00,WUHU21623XXSP,2013-01-18 14:21:00,
2013-01-18 08:26:00,28.6,21.3,29.49,South,180,9.2,9.2,74,0.00,,,0.00,WUHU21623XXSP,2013-01-18 14:26:00,
2013-01-18 08:31:00,28.8,21.5,29.49,SSE,157,6.7,9.2,74,0.00,,,0.00,WUHU21623XXSP,2013-01-18 14:31:00,
2013-01-18 08:36:00,28.9,21.7,29.49,SSW,202,6.5,6.7,74,0.00,,,0.00,WUHU21623XXSP,2013-01-18 14:36:00,
2013-01-18 08:41:00,29.7,22.3,29.49,SSE,157,8.5,8.5,74,0.00,,,0.00,WUHU21623XXSP,2013-01-18 14:41:00,
2013-01-18 08:46:00,30.0,22.7,29.48,South,180,4.3,8.5,74,0.00,,,0.00,WUHU21623XXSP,2013-01-18 14:46:00,
2013-01-18 08:51:00,30.2,22.7,29.48,South,180,4.3,8.5,73,0.00,,,0.00,WUHU21623XXSP,2013-01-18 14:51:00,
2013-01-18 08:56:00,30.7,23.1,29.47,SW,225,6.9,6.9,73,0.00,,,0.00,WUHU21623XXSP,2013-01-18 14:56:00,
2013-01-18 09:01:00,31.1,23.3,29.48,SSW,202,5.8,6.9,73,0.00,,,0.00,WUHU21623XXSP,2013-01-18 15:01:00,
2013-01-18 09:06:00,31.5,23.6,29.47,SW,225,8.3,8.3,73,0.00,,,0.00,WUHU21623XXSP,2013-01-18 15:06:00,
2013-01-18 09:11:00,32.2,24.2,29.47,SW,225,7.2,11.0,72,0.00,,,0.00,WUHU21623XXSP,2013-01-18 15:11:00,
2013-01-18 09:16:00,32.5,24.5,29.47,WNW,292,4.0,11.0,72,0.00,,,0.00,WUHU21623XXSP,2013-01-18 15:16:00,
2013-01-18 09:21:00,32.7,24.7,29.46,SSW,202,4.9,7.2,72,0.00,,,0.00,WUHU21623XXSP,2013-01-18 15:21:00,
2013-01-18 09:26:00,33.1,24.7,29.47,South,180,2.5,11.9,71,0.00,,,0.00,WUHU21623XXSP,2013-01-18 15:26:00,
2013-01-18 09:31:00,33.3,24.8,29.46,SSE,157,9.8,11.9,71,0.00,,,0.00,WUHU21623XXSP,2013-01-18 15:31:00,
2013-01-18 09:36:00,33.4,25.0,29.46,SSW,202,8.9,9.8,71,0.00,,,0.00,WUHU21623XXSP,2013-01-18 15:36:00,
2013-01-18 09:41:00,33.6,24.7,29.46,SSE,157,7.4,9.8,71,0.00,,,0.00,WUHU21623XXSP,2013-01-18 15:41:00,
2013-01-18 09:46:00,33.6,25.1,29.46,SSW,202,4.5,7.4,71,0.00,,,0.00,WUHU21623XXSP,2013-01-18 15:46:00,
2013-01-18 09:51:00,34.0,25.5,29.46,SSW,202,5.6,5.6,71,0.00,,,0.00,WUHU21623XXSP,2013-01-18 15:51:00,
2013-01-18 09:56:00,34.5,25.7,29.45,SSW,202,10.1,10.1,70,0.00,,,0.00,WUHU21623XXSP,2013-01-18 15:56:00,
2013-01-18 10:01:00,35.2,26.4,29.45,SW,225,4.9,10.1,70,0.00,,,0.00,WUHU21623XXSP,2013-01-18 16:01:00,
2013-01-18 10:06:00,35.8,26.2,29.45,South,180,8.7,11.2,70,0.00,,,0.00,WUHU21623XXSP,2013-01-18 16:06:00,
2013-01-18 10:11:00,36.5,26.9,29.45,South,180,5.6,11.2,69,0.00,,,0.00,WUHU21623XXSP,2013-01-18 16:11:00,
2013-01-18 10:16:00,37.0,27.5,29.44,SW,225,11.4,11.4,68,0.00,,,0.00,WUHU21623XXSP,2013-01-18 16:16:00,
2013-01-18 10:21:00,37.6,28.0,29.44,SW,225,8.9,11.4,68,0.00,,,0.00,WUHU21623XXSP,2013-01-18 16:21:00,
2013-01-18 10:26:00,38.1,28.5,29.44,SW,225,10.5,10.5,68,0.00,,,0.00,WUHU21623XXSP,2013-01-18 16:26:00,
2013-01-18 10:31:00,38.8,28.7,29.44,SE,135,6.3,10.5,67,0.00,,,0.00,WUHU21623XXSP,2013-01-18 16:31:00,
2013-01-18 10:36:00,39.0,28.4,29.44,SE,135,6.3,6.3,67,0.00,,,0.00,WUHU21623XXSP,2013-01-18 16:36:00,
2013-01-18 10:41:00,39.6,29.0,29.43,South,180,2.5,6.3,66,0.00,,,0.00,WUHU21623XXSP,2013-01-18 16:41:00,
2013-01-18 10:46:00,39.7,29.2,29.42,SW,225,7.4,7.4,66,0.00,,,0.00,WUHU21623XXSP,2013-01-18 16:46:00,
2013-01-18 10:51:00,40.3,29.4,29.42,SW,225,7.4,9.6,65,0.00,,,0.00,WUHU21623XXSP,2013-01-18 16:51:00,
2013-01-18 10:56:00,40.8,29.9,29.41,SSW,202,3.6,9.6,65,0.00,,,0.00,WUHU21623XXSP,2013-01-18 16:56:00,
2013-01-18 11:01:00,41.2,29.9,29.41,WSW,247,3.6,14.5,64,0.00,,,0.00,WUHU21623XXSP,2013-01-18 17:01:00,
2013-01-18 11:06:00,41.4,30.1,29.41,SSW,202,7.2,14.5,64,0.00,,,0.00,WUHU21623XXSP,2013-01-18 17:06:00,
2013-01-18 11:11:00,41.4,29.7,29.40,SSW,202,4.5,8.9,63,0.00,,,0.00,WUHU21623XXSP,2013-01-18 17:11:00,
2013-01-18 11:16:00,40.8,29.6,29.40,SW,225,10.1,12.1,64,0.00,,,0.00,WUHU21623XXSP,2013-01-18 17:16:00,
2013-01-18 11:21:00,40.6,29.4,29.39,SW,225,0.0,12.1,64,0.00,,,0.00,WUHU21623XXSP,2013-01-18 17:21:00,
2013-01-18 11:26:00,40.5,29.2,29.39,SSW,202,15.0,15.0,64,0.00,,,0.00,WUHU21623XXSP,2013-01-18 17:26:00,
2013-01-18 11:31:00,40.6,29.8,29.38,WSW,247,17.7,19.0,65,0.00,,,0.00,WUHU21623XXSP,2013-01-18 17:31:00,
2013-01-18 11:36:00,40.8,29.6,29.38,SW,225,8.3,19.0,65,0.00,,,0.00,WUHU21623XXSP,2013-01-18 17:36:00,
2013-01-18 11:41:00,41.4,30.1,29.37,SSW,202,13.6,13.6,64,0.00,,,0.00,WUHU21623XXSP,2013-01-18 17:41:00,
2013-01-18 11:46:00,41.5,30.2,29.36,West,270,5.4,13.6,64,0.00,,,0.00,WUHU21623XXSP,2013-01-18 17:46:00,
2013-01-18 11:51:00,41.9,30.6,29.36,SW,225,6.5,7.6,64,0.00,,,0.00,WUHU21623XXSP,2013-01-18 17:51:00,
2013-01-18 11:56:00,42.4,30.7,29.35,WSW,247,14.1,14.1,63,0.00,,,0.00,WUHU21623XXSP,2013-01-18 17:56:00,
2013-01-18 12:01:00,42.4,30.7,29.34,WSW,247,7.2,14.1,63,0.00,,,0.00,WUHU21623XXSP,2013-01-18 18:01:00,
2013-01-18 12:06:00,42.8,31.0,29.34,SSW,202,6.9,7.2,63,0.00,,,0.00,WUHU21623XXSP,2013-01-18 18:06:00,
2013-01-18 12:11:00,43.2,31.4,29.33,SE,135,11.4,11.4,63,0.00,,,0.00,WUHU21623XXSP,2013-01-18 18:11:00,
2013-01-18 12:16:00,43.3,31.6,29.32,SSW,202,3.8,11.4,63,0.00,,,0.00,WUHU21623XXSP,2013-01-18 18:16:00,
2013-01-18 12:21:00,43.5,31.7,29.32,SSE,157,7.6,11.4,63,0.00,,,0.00,WUHU21623XXSP,2013-01-18 18:21:00,
2013-01-18 12:26:00,43.7,31.5,29.31,SSE,157,5.6,10.7,62,0.00,,,0.00,WUHU21623XXSP,2013-01-18 18:26:00,
2013-01-18 12:31:00,43.7,31.5,29.30,South,180,3.8,10.7,62,0.00,,,0.00,WUHU21623XXSP,2013-01-18 18:31:00,
2013-01-18 12:36:00,44.1,31.9,29.30,SSW,202,16.3,16.3,62,0.00,,,0.00,WUHU21623XXSP,2013-01-18 18:36:00,
2013-01-18 12:41:00,44.2,32.0,29.29,SW,225,10.1,16.3,62,0.00,,,0.00,WUHU21623XXSP,2013-01-18 18:41:00,
2013-01-18 12:46:00,44.4,32.0,29.29,SW,225,10.1,11.4,62,0.00,,,0.00,WUHU21623XXSP,2013-01-18 18:46:00,
2013-01-18 12:51:00,44.4,32.2,29.28,South,180,11.2,11.2,62,0.00,,,0.00,WUHU21623XXSP,2013-01-18 18:51:00,
2013-01-18 12:56:00,44.6,32.4,29.28,South,180,8.7,11.2,62,0.00,,,0.00,WUHU21623XXSP,2013-01-18 18:56:00,
2013-01-18 13:01:00,45.0,32.3,29.27,WSW,247,8.1,11.2,61,0.00,,,0.00,WUHU21623XXSP,2013-01-18 19:01:00,
2013-01-18 13:06:00,45.0,32.3,29.27,SSW,202,7.8,8.1,61,0.00,,,0.00,WUHU21623XXSP,2013-01-18 19:06:00,
2013-01-18 13:11:00,45.3,32.7,29.27,SW,225,0.7,7.8,61,0.00,,,0.00,WUHU21623XXSP,2013-01-18 19:11:00,
2013-01-18 13:16:00,45.5,32.8,29.26,SSW,202,1.8,10.3,61,0.00,,,0.00,WUHU21623XXSP,2013-01-18 19:16:00,
2013-01-18 13:21:00,45.7,33.0,29.26,SSW,202,7.8,10.3,61,0.00,,,0.00,WUHU21623XXSP,2013-01-18 19:21:00,
2013-01-18 13:26:00,45.7,33.2,29.25,SSW,202,7.8,7.8,61,0.00,,,0.00,WUHU21623XXSP,2013-01-18 19:26:00,
2013-01-18 13:31:00,46.0,33.3,29.25,SW,225,7.6,7.8,61,0.00,,,0.00,WUHU21623XXSP,2013-01-18 19:31:00,
2013-01-18 13:36:00,46.0,33.3,29.25,SW,225,6.3,7.6,61,0.00,,,0.00,WUHU21623XXSP,2013-01-18 19:36:00,
2013-01-18 13:41:00,46.2,33.5,29.24,South,180,7.4,8.3,61,0.00,,,0.00,WUHU21623XXSP,2013-01-18 19:41:00,
2013-01-18 13:46:00,46.2,33.1,29.24,West,270,11.2,11.2,60,0.00,,,0.00,WUHU21623XXSP,2013-01-18 19:46:00,
2013-01-18 13:51:00,46.4,33.1,29.23,West,270,11.2,11.2,60,0.00,,,0.00,WUHU21623XXSP,2013-01-18 19:51:00,
2013-01-18 13:56:00,46.6,33.4,29.23,SW,225,6.7,14.3,60,0.00,,,0.00,WUHU21623XXSP,2013-01-18 19:56:00,
2013-01-18 14:01:00,46.6,33.4,29.23,SSW,202,10.5,14.3,60,0.00,,,0.00,WUHU21623XXSP,2013-01-18 20:01:00,
2013-01-18 14:06:00,46.8,33.4,29.22,WSW,247,7.8,10.5,60,0.00,,,0.00,WUHU21623XXSP,2013-01-18 20:06:00,
2013-01-18 14:11:00,46.8,33.2,29.22,SW,225,13.2,13.2,59,0.00,,,0.00,WUHU21623XXSP,2013-01-18 20:11:00,
2013-01-18 14:16:00,46.9,33.8,29.22,West,270,7.4,13.2,60,0.00,,,0.00,WUHU21623XXSP,2013-01-18 20:16:00,
2013-01-18 14:21:00,46.9,33.8,29.22,SSE,157,13.4,13.4,60,0.00,,,0.00,WUHU21623XXSP,2013-01-18 20:21:00,
2013-01-18 14:26:00,47.1,33.5,29.21,WSW,247,10.3,13.4,59,0.00,,,0.00,WUHU21623XXSP,2013-01-18 20:26:00,
2013-01-18 14:31:00,47.1,33.5,29.21,South,180,5.1,13.4,59,0.00,,,0.00,WUHU21623XXSP,2013-01-18 20:31:00,
2013-01-18 14:36:00,47.3,33.5,29.21,South,180,12.5,12.5,59,0.00,,,0.00,WUHU21623XXSP,2013-01-18 20:36:00,
2013-01-18 14:41:00,47.5,34.3,29.21,SW,225,7.6,12.5,60,0.00,,,0.00,WUHU21623XXSP,2013-01-18 20:41:00,
2013-01-18 14:46:00,47.5,34.3,29.21,South,180,7.2,12.5,60,0.00,,,0.00,WUHU21623XXSP,2013-01-18 20:46:00,
2013-01-18 14:51:00,47.7,34.5,29.21,South,180,13.6,13.6,60,0.00,,,0.00,WUHU21623XXSP,2013-01-18 20:51:00,
2013-01-18 14:56:00,47.8,34.7,29.20,SSW,202,8.9,13.6,60,0.00,,,0.00,WUHU21623XXSP,2013-01-18 20:56:00,
2013-01-18 15:01:00,47.8,34.2,29.20,SSW,202,5.4,9.2,59,0.00,,,0.00,WUHU21623XXSP,2013-01-18 21:01:00,
2013-01-18 15:06:00,48.0,34.4,29.20,SSW,202,3.4,6.5,59,0.00,,,0.00,WUHU21623XXSP,2013-01-18 21:06:00,
2013-01-18 15:11:00,47.8,34.7,29.20,SW,225,1.8,10.3,60,0.00,,,0.00,WUHU21623XXSP,2013-01-18 21:11:00,
2013-01-18 15:16:00,47.8,34.2,29.19,SSW,202,3.6,10.3,59,0.00,,,0.00,WUHU21623XXSP,2013-01-18 21:16:00,
2013-01-18 15:21:00,48.0,34.4,29.19,SSW,202,5.8,6.5,59,0.00,,,0.00,WUHU21623XXSP,2013-01-18 21:21:00,
2013-01-18 15:26:00,47.8,34.7,29.19,SSW,202,7.8,7.8,60,0.00,,,0.00,WUHU21623XXSP,2013-01-18 21:26:00,
2013-01-18 15:31:00,47.8,34.7,29.19,SSW,202,8.1,8.1,60,0.00,,,0.00,WUHU21623XXSP,2013-01-18 21:31:00,
2013-01-18 15:36:00,47.8,34.2,29.18,WSW,247,15.4,15.4,59,0.00,,,0.00,WUHU21623XXSP,2013-01-18 21:36:00,
2013-01-18 15:41:00,47.5,33.9,29.18,SW,225,8.1,15.4,59,0.00,,,0.00,WUHU21623XXSP,2013-01-18 21:41:00,
2013-01-18 15:46:00,47.5,33.9,29.18,SSW,202,12.8,12.8,59,0.00,,,0.00,WUHU21623XXSP,2013-01-18 21:46:00,
2013-01-18 15:51:00,47.3,33.7,29.18,South,180,7.2,12.8,59,0.00,,,0.00,WUHU21623XXSP,2013-01-18 21:51:00,
2013-01-18 15:56:00,47.1,34.0,29.18,South,180,0.9,12.8,60,0.00,,,0.00,WUHU21623XXSP,2013-01-18 21:56:00,
2013-01-18 16:01:00,46.9,34.0,29.19,SSW,202,9.6,9.8,60,0.00,,,0.00,WUHU21623XXSP,2013-01-18 22:01:00,
2013-01-18 16:06:00,46.8,33.8,29.19,SSW,202,6.7,9.6,60,0.00,,,0.00,WUHU21623XXSP,2013-01-18 22:06:00,
2013-01-18 16:11:00,46.6,33.4,29.18,SSW,202,1.3,10.1,60,0.00,,,0.00,WUHU21623XXSP,2013-01-18 22:11:00,
2013-01-18 16:16:00,46.6,33.4,29.19,South,180,9.4,10.1,60,0.00,,,0.00,WUHU21623XXSP,2013-01-18 22:16:00,
2013-01-18 16:21:00,46.6,33.8,29.19,WSW,247,2.5,9.4,61,0.00,,,0.00,WUHU21623XXSP,2013-01-18 22:21:00,
2013-01-18 16:26:00,46.0,33.3,29.19,SSW,202,3.1,7.6,61,0.00,,,0.00,WUHU21623XXSP,2013-01-18 22:26:00,
2013-01-18 16:31:00,46.0,33.3,29.20,SSW,202,0.0,6.5,61,0.00,,,0.00,WUHU21623XXSP,2013-01-18 22:31:00,
2013-01-18 16:36:00,45.7,33.0,29.19,SSW,202,2.9,4.7,61,0.00,,,0.00,WUHU21623XXSP,2013-01-18 22:36:00,
2013-01-18 16:41:00,45.1,32.5,29.19,SW,225,9.2,9.2,61,0.00,,,0.00,WUHU21623XXSP,2013-01-18 22:41:00,
2013-01-18 16:46:00,45.0,32.3,29.20,South,180,6.3,9.2,61,0.00,,,0.00,WUHU21623XXSP,2013-01-18 22:46:00,
2013-01-18 16:51:00,44.6,32.4,29.20,SW,225,6.3,7.6,62,0.00,,,0.00,WUHU21623XXSP,2013-01-18 22:51:00,
2013-01-18 16:56:00,44.2,32.2,29.20,SSE,157,6.0,7.6,62,0.00,,,0.00,WUHU21623XXSP,2013-01-18 22:56:00,
2013-01-18 17:01:00,44.2,32.0,29.20,SSW,202,6.5,6.9,62,0.00,,,0.00,WUHU21623XXSP,2013-01-18 23:01:00,
2013-01-18 17:06:00,43.7,31.9,29.19,SSW,202,7.6,7.6,63,0.00,,,0.00,WUHU21623XXSP,2013-01-18 23:06:00,
2013-01-18 17:11:00,43.5,31.7,29.19,SSW,202,10.3,10.3,63,0.00,,,0.00,WUHU21623XXSP,2013-01-18 23:11:00,
2013-01-18 17:16:00,43.5,31.7,29.19,South,180,3.8,10.3,63,0.00,,,0.00,WUHU21623XXSP,2013-01-18 23:16:00,
2013-01-18 17:21:00,43.2,31.4,29.19,SSW,202,9.4,9.4,63,0.00,,,0.00,WUHU21623XXSP,2013-01-18 23:21:00,
2013-01-18 17:26:00,43.0,31.2,29.19,SW,225,4.5,9.4,63,0.00,,,0.00,WUHU21623XXSP,2013-01-18 23:26:00,
2013-01-18 17:31:00,43.0,31.6,29.20,South,180,1.6,6.5,64,0.00,,,0.00,WUHU21623XXSP,2013-01-18 23:31:00,
2013-01-18 17:36:00,42.6,31.2,29.20,SW,225,9.8,9.8,64,0.00,,,0.00,WUHU21623XXSP,2013-01-18 23:36:00,
2013-01-18 17:41:00,42.6,31.2,29.20,SSW,202,6.3,9.8,64,0.00,,,0.00,WUHU21623XXSP,2013-01-18 23:41:00,
2013-01-18 17:46:00,42.6,31.2,29.20,SSW,202,4.7,6.3,64,0.00,,,0.00,WUHU21623XXSP,2013-01-18 23:46:00,
2013-01-18 17:51:00,42.4,31.1,29.19,SSE,157,2.2,6.0,64,0.00,,,0.00,WUHU21623XXSP,2013-01-18 23:51:00,
2013-01-18 17:56:00,42.4,31.1,29.19,South,180,1.6,6.0,64,0.00,,,0.00,WUHU21623XXSP,2013-01-18 23:56:00,
2013-01-18 18:01:00,42.3,30.9,29.20,SSW,202,3.4,4.5,64,0.00,,,0.00,WUHU21623XXSP,2013-01-19 00:01:00,
2013-01-18 18:06:00,42.1,31.1,29.20,SSW,202,4.7,4.7,65,0.00,,,0.00,WUHU21623XXSP,2013-01-19 00:06:00,
2013-01-18 18:11:00,42.1,31.1,29.20,SSW,202,0.0,5.4,65,0.00,,,0.00,WUHU21623XXSP,2013-01-19 00:11:00,
2013-01-18 18:16:00,41.9,31.0,29.20,SE,135,2.9,5.4,65,0.00,,,0.00,WUHU21623XXSP,2013-01-19 00:16:00,
2013-01-18 18:21:00,41.7,30.8,29.20,South,180,0.7,3.1,65,0.00,,,0.00,WUHU21623XXSP,2013-01-19 00:21:00,
2013-01-18 18:26:00,41.5,30.6,29.20,South,180,3.6,6.3,65,0.00,,,0.00,WUHU21623XXSP,2013-01-19 00:26:00,
2013-01-18 18:31:00,41.5,30.6,29.20,SSW,202,2.9,6.3,65,0.00,,,0.00,WUHU21623XXSP,2013-01-19 00:31:00,
2013-01-18 18:36:00,41.4,30.5,29.20,SSE,157,5.4,5.4,65,0.00,,,0.00,WUHU21623XXSP,2013-01-19 00:36:00,
2013-01-18 18:41:00,41.4,30.5,29.20,South,180,3.1,5.4,65,0.00,,,0.00,WUHU21623XXSP,2013-01-19 00:41:00,
2013-01-18 18:46:00,41.2,30.3,29.20,South,180,2.0,5.4,65,0.00,,,0.00,WUHU21623XXSP,2013-01-19 00:46:00,
2013-01-18 18:51:00,41.0,30.5,29.19,SW,225,6.7,6.7,66,0.00,,,0.00,WUHU21623XXSP,2013-01-19 00:51:00,
2013-01-18 18:56:00,40.8,30.3,29.19,SSW,202,3.4,6.7,66,0.00,,,0.00,WUHU21623XXSP,2013-01-19 00:56:00,
2013-01-18 19:01:00,40.8,30.3,29.20,South,180,5.4,5.4,66,0.00,,,0.00,WUHU21623XXSP,2013-01-19 01:01:00,
2013-01-18 19:06:00,40.8,30.3,29.20,SSW,202,3.6,6.0,66,0.00,,,0.00,WUHU21623XXSP,2013-01-19 01:06:00,
2013-01-18 19:11:00,40.6,30.1,29.20,SW,225,2.2,6.0,66,0.00,,,0.00,WUHU21623XXSP,2013-01-19 01:11:00,
2013-01-18 19:16:00,40.6,30.5,29.20,WSW,247,0.0,4.5,67,0.00,,,0.00,WUHU21623XXSP,2013-01-19 01:16:00,
2013-01-18 19:21:00,41.0,30.9,29.20,SSW,202,4.0,6.5,67,0.00,,,0.00,WUHU21623XXSP,2013-01-19 01:21:00,
2013-01-18 19:26:00,41.2,31.0,29.20,South,180,5.1,6.5,67,0.00,,,0.00,WUHU21623XXSP,2013-01-19 01:26:00,
2013-01-18 19:31:00,41.2,31.0,29.20,SSW,202,4.5,5.1,66,0.00,,,0.00,WUHU21623XXSP,2013-01-19 01:31:00,
2013-01-18 19:37:00,41.2,30.6,29.19,South,180,5.1,5.1,66,0.00,,,0.00,WUHU21623XXSP,2013-01-19 01:37:00,
2013-01-18 19:42:00,41.2,30.6,29.19,SSW,202,7.4,9.6,66,0.00,,,0.00,WUHU21623XXSP,2013-01-19 01:42:00,
2013-01-18 19:47:00,41.4,30.8,29.19,SSW,202,5.1,9.6,66,0.00,,,0.00,WUHU21623XXSP,2013-01-19 01:47:00,
2013-01-18 19:52:00,41.4,30.8,29.18,SW,225,2.9,10.1,66,0.00,,,0.00,WUHU21623XXSP,2013-01-19 01:52:00,
2013-01-18 19:57:00,41.5,31.0,29.18,SW,225,2.5,10.1,66,0.00,,,0.00,WUHU21623XXSP,2013-01-19 01:57:00,
2013-01-18 20:02:00,41.7,31.2,29.18,SSW,202,7.4,7.4,66,0.00,,,0.00,WUHU21623XXSP,2013-01-19 02:02:00,
2013-01-18 20:07:00,41.9,31.4,29.18,South,180,3.8,7.4,66,0.00,,,0.00,WUHU21623XXSP,2013-01-19 02:07:00,
2013-01-18 20:12:00,42.1,31.5,29.18,SW,225,7.4,7.4,66,0.00,,,0.00,WUHU21623XXSP,2013-01-19 02:12:00,
2013-01-18 20:17:00,41.9,31.4,29.18,WSW,247,0.9,7.4,66,0.00,,,0.00,WUHU21623XXSP,2013-01-19 02:17:00,
2013-01-18 20:22:00,41.7,31.4,29.18,SSW,202,4.7,7.2,66,0.00,,,0.00,WUHU21623XXSP,2013-01-19 02:22:00,
2013-01-18 20:27:00,41.7,31.2,29.18,SSW,202,4.3,4.9,66,0.00,,,0.00,WUHU21623XXSP,2013-01-19 02:27:00,
2013-01-18 20:32:00,41.5,31.0,29.18,South,180,7.4,7.4,66,0.00,,,0.00,WUHU21623XXSP,2013-01-19 02:32:00,
2013-01-18 20:37:00,41.5,31.0,29.18,SSW,202,4.5,8.5,66,0.00,,,0.00,WUHU21623XXSP,2013-01-19 02:37:00,
2013-01-18 20:42:00,41.5,31.0,29.18,South,180,2.5,8.5,66,0.00,,,0.00,WUHU21623XXSP,2013-01-19 02:42:00,
2013-01-18 20:47:00,41.4,31.0,29.18,SSW,202,6.3,6.5,66,0.00,,,0.00,WUHU21623XXSP,2013-01-19 02:47:00,
2013-01-18 20:52:00,41.4,30.8,29.17,SSW,202,2.9,6.3,66,0.00,,,0.00,WUHU21623XXSP,2013-01-19 02:52:00,
2013-01-18 20:57:00,41.4,30.8,29.17,SW,225,6.7,6.7,66,0.00,,,0.00,WUHU21623XXSP,2013-01-19 02:57:00,
2013-01-18 21:02:00,41.2,30.6,29.17,SW,225,7.4,9.6,66,0.00,,,0.00,WUHU21623XXSP,2013-01-19 03:02:00,
2013-01-18 21:07:00,41.2,30.6,29.17,South,180,6.7,9.6,66,0.00,,,0.00,WUHU21623XXSP,2013-01-19 03:07:00,
2013-01-18 21:12:00,41.0,30.5,29.17,SW,225,6.0,6.7,66,0.00,,,0.00,WUHU21623XXSP,2013-01-19 03:12:00,
2013-01-18 21:17:00,41.0,30.9,29.17,SW,225,3.6,6.7,67,0.00,,,0.00,WUHU21623XXSP,2013-01-19 03:17:00,
2013-01-18 21:22:00,40.8,30.7,29.17,SW,225,4.3,6.7,67,0.00,,,0.00,WUHU21623XXSP,2013-01-19 03:22:00,
2013-01-18 21:27:00,40.8,30.7,29.17,WSW,247,0.0,5.6,67,0.00,,,0.00,WUHU21623XXSP,2013-01-19 03:27:00,
2013-01-18 21:32:00,40.8,30.7,29.17,SW,225,6.0,7.2,67,0.00,,,0.00,WUHU21623XXSP,2013-01-19 03:32:00,
2013-01-18 21:37:00,40.8,30.7,29.17,WSW,247,3.4,7.2,67,0.00,,,0.00,WUHU21623XXSP,2013-01-19 03:37:00,
2013-01-18 21:42:00,40.8,30.7,29.17,South,180,5.1,6.5,67,0.00,,,0.00,WUHU21623XXSP,2013-01-19 03:42:00,
2013-01-18 21:47:00,40.8,30.7,29.17,South,180,2.9,8.1,67,0.00,,,0.00,WUHU21623XXSP,2013-01-19 03:47:00,
2013-01-18 21:52:00,40.6,30.5,29.17,SW,225,4.5,8.1,67,0.00,,,0.00,WUHU21623XXSP,2013-01-19 03:52:00,
2013-01-18 21:57:00,40.5,30.3,29.17,South,180,4.9,6.5,67,0.00,,,0.00,WUHU21623XXSP,2013-01-19 03:57:00,
2013-01-18 22:02:00,40.3,30.1,29.17,SW,225,3.8,8.7,67,0.00,,,0.00,WUHU21623XXSP,2013-01-19 04:02:00,
2013-01-18 22:07:00,40.3,30.1,29.17,West,270,11.0,11.0,67,0.00,,,0.00,WUHU21623XXSP,2013-01-19 04:07:00,
2013-01-18 22:12:00,40.3,30.1,29.16,WSW,247,6.3,11.0,67,0.00,,,0.00,WUHU21623XXSP,2013-01-19 04:12:00,
2013-01-18 22:17:00,40.1,30.0,29.17,SW,225,0.2,6.3,67,0.00,,,0.00,WUHU21623XXSP,2013-01-19 04:17:00,
2013-01-18 22:22:00,39.9,29.8,29.17,SW,225,2.9,7.4,67,0.00,,,0.00,WUHU21623XXSP,2013-01-19 04:22:00,
2013-01-18 22:27:00,39.9,30.2,29.17,SW,225,2.0,7.4,68,0.00,,,0.00,WUHU21623XXSP,2013-01-19 04:27:00,
2013-01-18 22:32:00,39.7,30.0,29.16,SSW,202,6.5,6.9,68,0.00,,,0.00,WUHU21623XXSP,2013-01-19 04:32:00,
2013-01-18 22:59:00,39.6,30.0,29.17,SW,225,6.5,6.5,68,0.00,,,0.00,WUHU21623XXSP,2013-01-19 04:59:00,